Portada
METAR-TAF:

METAR-TAF

Aeropuertos :

Villamontes, Bolivia

latitud: 21-15S, longitud: 063-27W, altitud: 398 m

Observación

El informe se hizo hace 18 minutos, a las 18:00 UTC
Viento 15 kt del sur con ráfagas de 25 kt
Temperatura 28°C
Humedad 62%
Presión 1015 hPa
Visibilidad 10 km o más
Nubes dispersas a una altura de 2300 ft
Cielo cubierto a una altura de 7000 ft

METAR: SLVM 271800Z 18015G25KT 9999 SCT023 OVC070 28/20 Q1015

Hora: 14:18 (18:18 UTC)


TAF: falta

Observaciones y pronósticos meteorológicos de más de 4000 aeropuertos (mensajes METAR y TAF).

Los puntos amarillos y rojos representan las estaciones disponibles.

Ponga el ratón en el punto deseado para ver el nombre de la estación.

Haga clic para ver las observaciones y los pronósticos meteorológicos.

Para cambiar el mapa : haga clic en los botones verdes con una cruz de color negro para hacer un zoom, en el botón verde con un guión para alejar o en las flechas verdes para mapas adyacentes.


METAR-TAF: